User: anonymous   Login
Location: Unspecified
(0.0000°N, 0.0000°E)
Time: 17:47:06
(UTC+00:00)
Language:

Skynet 4D - Orbit

View from above orbital plane
View from above orbital plane
View from above satellite
View from above satellite

Ground track
Ground track

The orbit data is extracted from the following two-line orbital elements,

1 25134U 98002A   17084.61738009 -.00000260 +00000-0 +00000-0 0  9997
2 25134 010.4458 032.0202 0001373 089.4490 087.5713 00.99157016069954
Epoch (UTC): 25 March 2017 14:49:01
Eccentricity: 0.0001373
inclination: 10.4458°
perigee height: 36096 km
apogee height: 36107 km
right ascension of ascending node: 32.0202°
argument of perigee: 89.4490°
revolutions per day: 0.99157016
mean anomaly at epoch: 87.5713°
orbit number at epoch: 6995

The dashed part of the orbit path shows where the satellite is in the earth's shadow,  

DLR